Wind_Speed
59 59 59 58 57 57 57 56 56 56 57 57 57 56 55 54 53 53 53 53 52 51 50 49 47 46 46 46 46 47 47 47 46 46 46 46 46 45 44 42 40 38 36 34 33 32 31 31 31 32 34 36 38 40 41 42 43 43 43 44 44 45 45 45 45 45 46 47 47 48 49 50 50 51 52 54 55 56 57 58 60 62 62 62 62 63
58 59 58 57 56 56 56 56 56 56 57 57 56 55 54 54 54 54 54 53 53 52 51 50 50 49 50 50 50 50 50 50 49 49 48 48 48 47 46 43 40 38 35 34 33 31 30 30 30 31 33 35 38 39 41 42 42 42 42 42 43 43 43 43 42 42 42 42 43 43 45 46 48 49 49 50 51 52 52 54 56 58 59 60 60 61
57 58 58 57 56 55 56 57 57 57 56 56 55 54 54 53 54 54 54 54 53 53 52 52 52 53 54 55 55 54 54 52 50 49 47 47 46 45 44 41 39 37 35 34 32 31 29 29 29 31 33 35 37 39 40 41 40 40 40 40 41 41 40 39 39 38 39 39 40 41 42 44 45 46 47 47 47 47 47 48 49 51 53 55 57 59
55 56 56 56 56 55 56 56 57 57 56 55 55 54 53 53 53 53 53 53 53 53 53 54 55 56 58 59 58 57 55 52 49 46 44 43 42 41 40 38 37 36 35 34 32 30 29 29 29 31 32 34 36 37 39 39 39 38 38 38 38 38 37 36 36 37 38 39 39 40 41 42 44 45 45 45 44 44 43 43 44 45 48 51 53 55
53 53 54 54 55 55 56 56 56 56 55 55 55 54 54 53 53 53 53 53 53 53 54 55 57 59 60 61 60 57 53 49 46 42 40 39 38 37 37 36 36 35 35 34 32 31 30 30 30 31 32 33 34 36 37 37 37 37 36 36 35 35 35 35 35 37 38 38 38 39 40 41 42 43 43 42 42 42 41 41 42 43 45 47 49 51
52 51 52 52 53 54 55 55 54 53 53 54 54 54 54 53 52 52 52 53 53 54 55 57 59 60 61 59 57 53 48 44 41 39 37 36 36 35 35 35 35 35 35 34 32 31 31 31 32 33 33 34 34 35 36 36 36 35 34 34 34 34 34 34 35 36 37 38 38 38 39 39 40 40 40 40 40 40 41 41 42 43 44 45 46 47
51 50 50 51 52 53 53 52 51 51 52 53 54 54 54 53 52 51 52 53 54 56 58 60 61 60 58 54 50 46 42 40 38 37 36 35 35 35 35 35 35 35 35 34 34 34 34 34 35 35 35 35 35 35 35 35 34 33 33 33 33 34 34 34 35 35 36 37 37 37 37 38 38 38 38 38 38 39 41 41 42 43 43 43 43 43
50 50 50 51 51 52 51 51 51 51 51 52 52 53 53 53 52 53 54 55 57 59 61 63 62 59 54 49 44 40 38 37 37 37 37 36 36 35 35 35 36 36 37 37 37 38 38 38 37 37 37 36 35 34 34 34 33 32 32 33 33 34 34 34 34 35 36 36 36 36 36 36 36 36 36 36 37 38 39 40 41 42 41 41 41 41
49 50 51 51 51 51 51 52 52 51 50 50 50 50 51 52 54 55 57 59 61 62 65 65 63 57 51 45 41 38 38 38 38 38 38 37 37 37 37 38 38 39 40 40 41 41 40 39 38 37 36 35 33 33 32 32 31 31 32 32 34 34 34 34 34 35 36 36 36 36 36 35 35 35 35 35 35 36 36 38 39 40 40 40 40 40
49 50 52 52 51 49 50 51 52 51 50 49 48 49 50 52 55 58 60 63 65 66 66 65 61 55 48 43 40 39 39 39 39 39 39 40 40 40 41 42 42 42 41 41 40 40 39 38 36 35 33 32 31 31 30 30 31 31 32 33 34 34 34 34 34 35 35 35 36 36 36 36 35 35 35 34 34 33 34 36 37 38 39 39 39 39
50 51 52 52 51 50 49 50 52 52 52 52 52 52 53 55 57 61 65 67 68 67 65 62 57 51 46 42 41 40 39 40 40 41 41 42 43 43 44 44 44 42 41 39 38 37 35 34 33 32 30 29 28 28 29 29 30 31 32 33 34 34 34 34 34 34 35 35 35 35 36 36 36 36 36 35 33 33 33 35 36 37 37 37 37 37
50 52 53 54 53 53 53 54 55 55 56 57 58 59 59 60 62 64 67 69 68 66 62 58 52 47 43 41 40 40 40 40 40 42 44 44 44 45 46 46 44 41 39 37 35 33 32 31 30 29 28 27 26 26 27 27 29 30 31 32 33 33 33 32 32 33 34 35 35 35 35 36 37 37 37 36 34 33 32 33 34 36 36 36 36 35
50 53 55 56 57 58 59 59 59 58 58 59 60 62 63 63 63 64 64 64 62 59 56 52 48 44 41 39 39 39 40 41 43 45 45 45 45 46 47 46 44 40 38 36 34 32 30 30 29 28 26 26 25 25 25 26 27 28 29 30 30 30 30 30 30 32 33 34 35 35 35 36 37 38 38 37 36 34 32 32 33 35 36 36 36 36
49 53 55 57 60 63 63 62 60 59 58 57 58 59 59 59 59 58 57 56 54 51 48 45 43 42 41 39 39 40 42 45 46 46 44 43 43 44 45 45 43 39 37 35 34 32 30 30 29 28 26 25 25 25 24 25 25 25 25 26 26 27 28 29 30 31 32 33 35 36 37 37 37 38 38 38 37 35 33 32 33 34 35 36 37 37
50 53 56 59 62 64 64 62 60 58 56 55 54 54 53 53 51 50 49 48 46 45 43 42 42 42 41 41 41 43 45 47 47 45 42 41 40 41 43 43 41 38 35 34 33 32 30 30 29 28 27 26 25 25 25 24 24 24 23 24 24 25 27 29 30 30 30 31 34 36 38 38 38 38 38 38 38 36 34 33 33 33 34 35 36 37
53 55 58 61 63 64 62 60 58 57 55 53 51 49 48 46 45 44 44 44 45 45 45 46 46 45 44 43 44 46 48 48 47 44 42 40 38 38 40 41 40 37 35 34 33 32 31 30 29 29 28 27 26 26 25 25 24 24 24 25 25 26 28 29 29 29 29 30 33 36 38 39 39 38 38 38 38 37 36 34 33 33 33 33 34 36
55 57 60 62 63 62 60 58 56 54 52 50 48 45 43 42 42 43 44 45 46 48 49 50 51 51 51 48 46 46 48 48 47 45 43 41 39 37 38 40 40 38 35 34 33 32 31 30 29 28 28 27 27 26 25 24 24 24 25 26 27 28 28 29 29 29 29 30 32 35 37 39 39 38 37 37 38 38 37 36 35 33 32 31 32 34
56 58 60 61 61 60 58 56 54 51 49 47 45 43 41 41 42 44 46 47 48 49 50 52 52 53 53 52 49 46 46 47 47 45 44 42 40 39 39 39 39 38 36 34 33 32 31 29 28 27 26 26 26 26 26 25 26 26 27 27 28 29 30 30 30 30 30 31 33 35 37 38 38 38 37 37 38 39 39 38 36 34 32 31 31 33
58 59 60 60 59 57 55 53 50 48 46 44 43 42 42 43 44 46 47 47 47 48 50 52 53 53 52 52 50 46 45 45 46 46 45 44 42 40 39 40 39 38 36 34 33 31 30 28 27 26 25 26 27 28 28 28 28 28 28 29 30 30 30 30 30 30 31 32 34 35 37 38 38 38 38 38 39 39 40 38 36 35 34 32 31 32
58 58 57 56 55 54 52 49 46 44 43 43 42 42 44 44 45 46 47 47 48 49 51 53 53 52 50 50 48 46 44 44 45 45 45 45 44 42 40 40 39 38 36 35 33 32 30 29 27 26 27 28 29 30 30 29 29 29 29 29 30 30 31 31 32 32 32 33 35 36 37 38 38 39 39 39 39 39 39 39 37 36 36 33 31 32
56 55 53 51 50 49 48 45 43 42 42 42 43 43 44 45 46 46 47 47 48 49 50 50 50 49 48 48 47 46 44 44 44 45 45 46 45 43 41 40 39 38 37 36 34 33 32 31 31 30 31 31 31 31 31 31 30 29 29 30 30 31 31 32 32 33 33 34 35 37 38 39 40 40 40 40 40 39 39 38 37 37 37 34 32 32
53 51 49 47 45 45 44 42 42 41 41 42 43 43 44 44 45 45 45 45 46 47 47 47 47 47 47 47 47 46 44 43 43 43 44 45 45 43 40 39 39 39 38 37 35 34 34 33 33 32 32 33 33 33 32 32 32 31 31 30 30 30 30 30 31 32 33 34 35 37 39 40 41 42 42 42 41 40 38 38 37 38 38 36 33 32
48 47 45 43 42 41 41 40 40 40 40 41 41 42 42 42 43 43 43 43 44 45 45 46 46 47 47 47 47 45 43 42 41 41 42 43 44 42 40 39 38 38 38 37 36 35 34 34 33 33 32 32 32 32 31 31 31 31 30 29 28 28 28 28 29 30 31 32 34 36 38 40 42 43 44 43 42 41 39 38 37 38 38 37 35 34
43 42 41 39 39 39 39 39 39 39 39 39 40 40 39 40 40 41 41 42 43 44 45 46 46 47 47 46 45 44 42 40 39 39 40 41 41 41 39 38 37 37 37 36 35 34 34 33 32 32 31 31 30 30 30 30 30 29 28 26 25 25 25 26 27 28 29 30 32 34 37 40 42 44 44 44 43 41 40 39 38 38 39 39 37 36
39 38 37 37 37 37 37 38 38 38 38 38 38 38 39 39 39 40 41 41 42 43 44 45 46 46 45 45 44 43 41 39 38 37 38 39 39 39 37 36 36 37 37 35 34 33 33 32 31 31 30 29 29 28 28 28 28 27 25 23 23 23 23 24 24 25 27 28 30 32 35 39 41 43 43 43 43 42 41 39 38 38 38 39 39 38
36 36 36 36 36 36 36 37 37 37 37 37 38 38 38 39 39 40 40 41 41 41 42 43 44 44 44 43 43 42 40 39 37 36 36 37 38 38 37 35 35 36 36 35 34 33 32 31 30 29 28 27 27 27 26 26 25 24 22 21 20 20 21 21 22 23 25 27 29 31 34 37 39 41 42 42 42 42 41 40 38 38 38 39 39 39
35 35 35 35 36 36 36 37 37 37 37 37 37 37 37 38 38 38 39 39 39 39 40 41 42 42 42 41 41 40 39 37 35 34 34 35 37 37 36 35 35 36 36 35 34 32 32 31 29 28 27 25 25 24 24 24 23 22 20 19 19 18 18 19 21 23 25 27 29 30 32 35 37 39 40 41 40 40 40 39 38 37 37 37 38 38
34 35 35 36 36 36 37 37 37 37 36 36 35 35 35 35 35 36 37 37 37 37 37 38 39 40 40 39 39 38 37 35 33 32 32 33 35 36 36 35 34 35 35 35 34 32 31 30 29 27 26 24 24 23 22 22 21 20 19 18 17 17 17 19 21 23 25 27 28 29 31 32 34 36 37 38 38 38 38 38 37 36 35 36 37 37
35 35 35 36 36 36 36 36 35 35 34 33 32 32 31 31 32 33 34 34 34 34 35 35 36 37 37 38 37 36 34 33 31 30 31 32 34 34 34 33 33 33 34 35 34 32 30 29 28 27 26 25 24 23 22 21 20 19 18 17 16 16 17 19 21 24 26 27 27 28 29 30 31 33 34 35 35 35 35 35 34 34 33 34 35 35
36 36 36 36 35 35 34 34 33 32 31 30 29 28 27 28 28 29 30 31 31 32 33 33 34 35 35 36 37 36 34 31 29 28 29 31 32 33 33 33 32 32 33 34 35 35 32 29 28 27 27 26 24 22 20 19 18 17 16 16 16 16 17 19 22 24 25 26 26 27 27 28 29 30 31 31 32 32 32 32 31 31 31 32 34 34
37 37 36 35 34 32 32 31 30 29 28 26 25 25 25 25 26 27 28 29 29 30 31 32 33 33 34 34 35 36 35 31 28 26 27 29 31 32 32 32 32 31 31 32 34 35 36 32 28 26 26 25 23 20 18 16 16 15 15 15 15 16 17 19 21 23 24 25 25 25 25 25 26 27 27 28 29 29 29 28 28 29 29 31 33 34
37 36 35 33 32 31 30 29 28 27 26 25 24 24 24 25 25 26 27 28 28 29 30 31 32 32 32 32 33 34 34 31 28 26 27 28 30 31 31 31 31 31 30 29 30 32 35 35 31 27 25 23 21 18 16 15 14 14 14 14 14 15 16 18 20 22 23 23 23 23 23 23 23 23 24 25 25 26 25 25 25 26 27 29 32 33
35 34 32 31 30 29 28 27 26 25 25 25 25 25 25 25 26 26 27 27 28 29 29 30 31 32 32 32 32 33 32 30 28 26 26 27 29 30 30 30 30 30 30 29 29 30 32 34 33 30 25 21 19 17 15 14 13 13 13 12 13 13 14 16 19 20 21 21 21 20 20 19 19 20 20 21 22 22 22 22 22 24 25 27 29 31
33 31 30 29 28 27 26 26 25 25 26 26 26 26 26 26 27 27 27 27 28 28 29 29 30 31 31 32 33 32 31 29 27 26 25 26 28 29 29 29 30 30 30 29 29 30 31 32 32 30 26 21 18 16 16 14 12 11 11 11 11 11 13 15 17 18 19 18 17 17 16 15 15 15 16 16 17 18 18 19 20 21 22 24 26 27
30 29 28 28 27 27 26 26 26 26 27 27 27 27 27 27 27 27 27 27 27 27 27 28 28 29 29 30 31 32 31 28 26 25 24 25 26 27 28 28 28 29 29 30 31 31 32 31 30 29 27 23 19 16 15 13 11 10 9 9 10 10 12 13 15 15 15 15 14 13 12 11 11 11 12 13 14 15 16 16 17 18 19 21 22 23
29 28 28 28 28 27 27 27 27 28 28 28 28 28 27 27 27 27 27 27 27 27 26 26 26 26 27 27 28 29 29 28 26 24 23 23 24 25 27 27 28 28 29 30 31 32 32 31 29 27 25 23 20 16 12 10 8 8 8 8 8 9 11 11 12 11 11 10 10 9 9 9 10 10 11 12 14 15 15 15 15 16 16 17 18 19
29 28 28 28 29 29 29 29 29 29 29 29 28 28 28 28 28 27 27 27 26 26 26 25 25 24 24 25 25 26 26 26 25 23 22 22 23 24 26 27 27 27 28 30 31 32 31 31 28 26 23 21 19 15 11 8 6 6 6 6 7 8 8 9 8 7 6 5 5 5 6 7 8 9 10 11 13 14 15 16 16 16 15 16 16 16
29 29 29 29 29 30 30 30 30 30 30 29 29 29 28 28 28 27 27 26 26 25 25 25 24 23 23 23 23 23 24 24 23 22 22 21 22 23 25 26 27 27 28 29 29 30 30 29 28 26 22 18 15 13 10 8 6 4 4 5 6 6 6 6 5 3 1 1 2 3 4 5 6 8 9 10 11 13 15 16 17 17 16 15 14 14
29 29 29 29 30 30 30 30 30 30 30 30 29 29 29 28 28 27 26 26 25 25 24 24 24 23 22 21 21 21 22 22 21 21 21 21 21 22 24 25 26 27 27 27 27 27 27 27 26 24 21 17 13 10 8 6 4 3 3 4 4 4 4 3 2 1 2 4 5 6 6 7 7 8 9 10 10 11 14 16 18 19 18 16 14 13
29 29 29 30 30 30 31 31 31 31 30 30 29 29 28 28 28 27 26 26 25 24 24 24 23 23 22 21 20 20 20 20 20 20 20 20 21 22 23 24 25 26 26 26 25 25 24 24 23 20 18 16 13 10 7 4 3 2 2 2 3 3 3 3 3 2 2 3 5 7 9 10 10 10 10 11 12 12 14 16 18 19 19 18 16 14
29 30 30 30 30 30 30 30 30 30 30 30 29 29 29 28 28 28 27 26 25 24 24 24 23 22 21 20 19 19 19 19 19 19 20 20 21 22 23 24 25 25 26 25 24 22 22 21 20 18 16 13 10 8 5 3 2 2 1 2 2 3 3 3 3 3 2 2 3 5 8 11 12 11 10 10 12 13 15 16 18 19 19 18 17 16
29 29 30 30 30 30 30 30 30 29 29 29 29 29 28 28 28 28 28 27 26 25 24 24 23 23 21 20 19 18 18 18 19 19 20 21 21 22 23 24 25 25 25 24 22 20 19 18 17 15 13 10 8 6 4 2 2 2 2 2 2 3 4 4 4 4 3 4 6 9 11 13 12 10 8 8 9 11 13 15 17 18 18 18 18 17
29 29 30 30 30 30 30 30 29 29 29 29 28 28 28 28 28 28 28 27 27 26 25 24 24 23 22 21 19 18 17 18 18 19 20 21 21 22 23 23 24 24 24 23 21 19 16 14 13 12 10 8 6 4 3 2 2 3 3 4 5 6 7 6 5 5 6 9 12 13 13 12 10 8 7 6 7 9 11 13 15 15 16 16 17 18
29 29 29 30 30 30 29 29 29 29 29 29 29 28 28 28 28 28 28 28 27 26 25 24 24 23 23 22 21 19 19 18 18 19 19 20 21 22 22 23 23 23 22 21 19 17 14 12 10 9 7 6 5 3 3 3 4 5 6 7 8 9 9 8 8 9 11 13 14 13 10 9 8 8 7 6 6 7 9 11 13 14 14 15 16 18
29 29 29 29 29 29 29 29 29 29 29 29 29 28 28 28 28 28 28 28 27 26 25 24 23 23 22 22 22 21 20 20 19 19 19 20 20 21 21 22 22 21 20 18 17 15 12 10 8 6 5 5 4 4 4 5 7 8 9 10 11 11 12 13 14 15 16 15 13 10 8 8 9 8 7 6 6 6 7 8 10 11 12 13 15 17
28 29 29 29 29 29 29 29 29 29 29 28 28 28 28 28 28 28 28 27 27 25 24 23 23 22 22 22 22 23 22 22 21 20 20 20 20 20 20 20 20 19 18 16 14 12 10 8 6 6 5 5 5 5 6 8 10 11 12 13 13 15 17 18 19 18 16 14 11 10 9 9 9 8 7 6 6 6 6 7 8 9 11 12 14 17
28 29 29 29 29 29 29 29 29 29 28 28 28 27 27 27 27 27 27 27 26 25 24 23 22 21 22 22 23 23 24 24 23 22 22 21 20 20 19 19 19 18 16 14 12 10 8 6 6 6 6 7 7 8 9 11 12 14 14 15 17 19 22 23 21 18 15 14 13 12 11 11 9 7 6 5 5 6 6 7 8 9 10 11 13 16
28 28 29 29 29 29 29 29 29 29 28 28 27 26 26 26 26 26 26 26 25 25 24 23 22 21 21 22 22 23 24 24 24 24 23 22 21 20 19 18 17 16 14 12 10 8 7 6 6 7 7 8 10 12 13 14 15 16 16 18 21 24 26 25 22 20 19 18 17 15 14 12 10 8 6 5 5 7 7 7 7 8 8 10 12 14
28 28 29 29 30 30 30 29 29 29 28 27 26 25 25 24 25 25 25 25 25 25 24 23 22 22 21 22 22 23 23 24 24 24 24 23 22 21 20 18 17 15 14 11 9 8 7 7 7 8 9 10 12 15 16 16 17 18 19 22 24 26 27 25 23 23 23 22 20 18 15 13 11 10 10 9 7 7 8 8 7 7 7 8 10 12
28 28 29 29 30 30 30 29 29 28 28 27 26 25 24 23 23 23 23 23 24 24 24 24 23 23 22 22 22 23 23 23 24 24 23 23 23 22 21 19 17 15 13 11 9 8 8 8 9 10 11 13 15 16 17 18 18 20 22 25 26 26 26 25 24 23 23 22 20 19 17 15 14 13 12 12 10 8 8 9 8 7 7 7 8 10
28 29 29 29 30 30 29 29 29 28 28 27 26 25 24 23 22 22 21 22 22 23 24 24 24 24 23 23 22 22 23 23 24 24 23 23 23 22 21 20 17 15 13 11 9 9 9 10 11 12 14 15 17 18 19 19 20 23 25 26 26 26 25 24 23 22 21 20 19 18 18 17 16 15 13 12 11 9 9 10 9 9 8 8 8 9
Wind_Direction
306 306 307 307 307 308 308 309 311 311 311 312 312 313 313 312 312 312 311 310 309 307 306 305 305 306 308 309 310 310 309 308 307 305 304 304 304 304 304 302 300 297 295 293 292 291 289 288 287 286 285 283 281 278 276 274 272 272 271 271 270 270 269 268 267 267 267 267 267 267 268 267 267 267 267 266 265 264 263 260 258 257 256 255 254 254
307 307 307 308 309 310 311 311 312 313 313 313 313 313 313 312 311 310 309 309 308 307 307 307 308 309 310 311 312 312 311 309 306 304 301 300 300 300 300 299 297 295 294 293 292 291 290 290 290 290 289 287 283 280 277 274 273 272 272 271 271 271 270 270 270 270 270 270 270 271 271 270 269 267 267 267 266 266 264 262 260 257 256 254 253 252
308 308 309 311 312 313 313 313 313 313 313 314 314 314 313 311 310 309 308 308 308 309 309 310 310 310 310 311 311 311 310 308 305 302 300 298 297 297 297 296 295 293 293 292 291 290 290 290 292 292 291 289 285 281 277 275 274 273 272 271 271 271 271 271 270 270 269 268 268 269 270 270 270 269 268 268 267 266 265 263 261 258 256 254 252 251
310 311 311 313 315 315 314 313 313 313 313 314 314 313 312 310 309 308 308 309 310 311 311 312 311 310 309 309 309 309 309 307 305 303 300 298 297 296 295 293 292 292 291 291 290 289 289 291 294 295 294 291 287 282 279 276 274 273 272 271 271 271 271 271 270 269 267 266 265 264 265 267 268 269 269 269 267 266 264 262 261 259 258 256 253 251
312 312 313 314 314 313 313 312 312 314 315 315 314 312 311 309 309 309 309 310 311 311 311 311 309 308 307 307 307 307 307 307 305 303 301 299 297 295 293 292 291 291 290 290 289 290 292 294 297 298 297 294 290 285 280 277 274 272 271 270 269 269 269 268 268 267 266 265 264 264 264 265 267 268 269 268 267 265 262 260 259 259 258 257 255 252
312 312 313 312 312 311 311 312 313 315 316 314 313 311 310 310 309 309 308 308 308 308 308 308 308 308 307 306 306 306 306 305 304 302 300 298 296 294 293 292 291 291 292 292 292 294 296 299 300 301 300 298 294 288 282 277 274 271 269 267 266 265 264 264 264 264 264 264 264 264 265 267 268 269 269 268 266 264 261 259 258 257 256 255 254 251
311 312 312 311 310 310 310 313 315 316 316 314 312 311 310 309 308 306 305 304 304 304 306 307 308 308 308 307 306 305 304 302 301 299 298 296 295 294 294 294 295 296 296 297 298 299 300 301 302 303 302 300 295 289 282 278 274 270 267 264 262 261 260 261 261 262 262 262 263 265 267 268 269 270 270 269 267 264 262 261 259 257 255 254 252 251
310 311 311 310 310 311 313 315 317 317 316 314 312 311 309 307 305 302 301 301 302 303 305 307 309 309 308 307 305 303 300 299 299 298 298 297 297 298 299 300 301 301 302 302 302 302 302 302 302 302 301 299 293 287 281 277 274 270 266 263 261 259 259 259 260 261 262 263 264 265 267 268 270 270 269 268 266 264 262 261 260 258 256 254 252 251
310 310 311 311 313 315 317 318 317 316 314 312 310 307 304 302 300 300 300 300 302 304 306 308 309 309 307 304 302 299 298 298 299 300 301 302 303 304 304 305 305 305 304 304 303 301 301 300 300 300 298 295 290 284 280 276 272 268 265 263 261 260 259 260 262 264 265 265 265 266 266 267 267 267 266 264 262 261 260 259 258 257 255 254 252 251
310 311 312 314 315 317 318 316 314 312 309 307 303 300 298 297 297 298 299 301 303 305 306 308 308 307 305 302 299 298 299 301 304 305 307 307 306 306 306 306 306 305 304 303 301 300 299 298 298 297 295 291 286 282 279 275 271 267 264 263 262 261 261 263 265 267 267 267 266 265 265 264 263 262 261 258 256 255 255 255 254 253 252 251 250 250
312 311 311 313 314 314 312 309 306 303 301 299 297 295 294 295 296 297 299 301 304 305 306 307 306 305 302 299 298 300 305 309 310 309 307 306 305 305 305 305 305 305 304 303 301 300 299 298 297 295 292 288 284 281 278 274 270 267 264 263 263 263 264 265 267 267 267 266 265 264 264 262 261 260 257 254 251 250 251 251 251 250 248 246 245 245
308 307 307 309 310 309 307 303 299 296 295 295 295 295 295 296 297 298 300 302 303 305 305 305 304 303 300 298 301 306 312 312 309 305 303 303 304 304 304 305 305 305 305 304 302 301 299 298 296 293 290 286 283 280 277 274 271 268 265 264 264 264 264 265 266 266 265 263 262 262 262 260 259 257 254 251 248 248 249 251 250 249 246 243 241 240
301 301 303 305 305 305 305 303 301 299 298 297 297 297 298 299 300 301 302 302 303 304 305 304 303 300 298 300 306 311 313 307 301 299 300 302 303 304 304 304 305 306 306 304 303 301 300 299 296 293 289 286 283 280 278 275 272 269 266 264 263 262 262 263 263 264 263 260 258 257 257 257 257 255 252 249 247 246 248 250 250 248 246 243 240 237
295 298 300 302 303 304 305 305 305 304 303 303 302 302 302 303 303 303 304 304 304 305 305 304 302 299 299 303 309 311 307 301 299 299 301 303 304 304 304 304 305 305 305 304 303 302 301 299 297 293 289 286 283 280 278 275 272 268 265 263 262 261 261 261 263 264 263 260 256 255 255 255 255 254 252 248 246 245 247 249 250 249 246 243 240 237
295 297 299 301 301 302 304 306 307 308 307 307 307 306 306 306 306 306 307 308 309 309 308 306 304 302 302 306 309 308 304 302 302 304 305 305 305 305 305 305 305 305 304 304 303 302 301 299 297 294 290 287 283 280 276 273 270 268 266 265 264 263 263 264 266 267 266 261 257 254 254 254 255 254 252 248 245 244 246 248 249 249 247 245 242 239
295 296 298 299 300 302 305 307 308 309 308 308 308 308 308 309 310 311 313 314 314 314 314 313 310 308 306 307 307 306 304 304 305 307 307 306 306 306 306 306 305 305 304 304 303 302 301 299 297 294 291 288 284 279 275 273 273 272 270 269 269 269 271 272 272 272 268 263 258 255 254 254 254 254 251 248 245 244 245 246 247 246 244 243 242 240
295 296 297 299 302 304 306 308 308 308 308 308 309 309 310 312 314 316 317 317 317 317 316 314 311 309 307 306 306 305 304 305 307 308 308 307 307 307 307 307 306 305 304 304 303 301 300 298 296 293 291 288 284 280 278 278 277 276 275 276 278 279 280 280 278 274 270 265 259 255 254 253 254 253 251 247 245 243 244 244 243 241 238 236 237 238
296 298 300 302 304 305 307 307 308 308 308 309 310 310 311 313 315 316 316 316 315 314 311 308 305 304 303 303 304 305 306 306 307 308 308 307 307 308 308 307 306 305 304 303 301 300 298 296 294 293 292 290 288 286 285 286 286 284 283 283 284 284 284 283 281 276 271 265 260 256 254 253 253 252 251 248 245 243 243 243 241 237 233 231 231 233
299 301 302 303 304 305 306 306 307 308 310 311 312 313 313 313 313 313 312 311 309 306 302 300 299 300 301 301 303 306 308 308 308 307 307 306 307 307 308 306 305 304 303 302 300 299 297 296 296 295 294 292 290 290 291 291 291 289 287 286 285 285 284 284 282 278 272 266 261 257 255 254 253 252 250 248 246 244 243 242 240 236 231 230 229 230
300 301 302 303 304 305 305 306 308 310 311 312 312 312 310 309 307 305 304 302 300 297 296 295 297 299 300 301 304 306 308 308 307 306 306 305 306 307 307 307 306 304 303 302 302 302 301 301 299 296 293 291 291 292 293 293 291 289 286 284 284 284 285 284 282 278 273 267 261 257 255 254 252 252 251 250 248 246 245 243 240 235 232 231 229 229
301 302 303 304 304 305 306 308 310 311 311 311 310 307 305 302 300 298 296 295 294 295 296 297 298 300 301 302 304 306 308 308 307 306 305 305 305 306 307 307 307 306 305 304 305 305 305 304 301 298 296 296 296 296 296 294 291 288 286 285 285 285 285 283 280 276 271 266 261 257 254 253 252 252 251 251 250 249 247 245 240 236 232 231 230 230
302 303 304 305 306 307 308 310 311 311 310 309 306 303 302 300 299 298 297 297 297 297 298 299 300 301 302 303 304 306 307 307 306 305 305 304 304 306 308 308 307 307 306 306 307 307 306 304 302 300 299 299 298 297 296 295 293 291 290 290 290 288 286 282 279 274 270 264 259 255 252 251 250 250 251 251 251 251 249 247 242 237 232 230 229 230
304 305 307 308 309 310 311 311 311 310 309 308 307 305 304 303 302 301 301 301 300 300 301 301 302 303 303 304 305 305 306 306 305 305 305 304 305 307 309 309 308 307 306 307 307 306 304 302 301 299 299 298 297 296 295 294 293 293 293 294 292 290 286 282 278 274 269 263 258 253 250 248 247 247 248 250 250 250 249 248 244 239 233 229 228 229
307 308 310 312 313 313 313 312 312 311 310 309 308 307 306 305 304 303 302 302 302 302 302 303 303 303 303 304 304 304 305 306 307 307 307 307 307 308 309 310 309 308 306 306 306 305 303 301 299 298 298 297 296 295 294 293 293 294 295 295 293 290 287 283 279 274 269 263 257 252 248 245 244 244 245 246 247 248 248 248 246 241 235 230 228 228
311 312 314 314 314 314 314 313 312 312 311 310 309 308 307 306 305 304 303 303 303 303 303 303 303 303 303 304 304 305 306 308 310 311 311 310 310 310 310 311 310 308 307 307 306 306 304 301 300 299 299 298 297 296 295 294 295 297 299 298 295 292 288 284 279 274 269 263 258 252 248 244 242 241 241 242 244 245 246 247 246 243 237 232 229 229
315 316 316 316 316 315 314 313 312 312 311 311 310 309 307 306 305 304 303 303 303 303 303 303 303 303 304 305 306 308 310 312 314 315 315 314 312 311 311 312 312 310 309 309 309 309 307 305 303 303 302 301 300 299 298 298 300 302 303 301 298 294 289 284 279 274 268 263 258 253 249 245 242 240 239 239 240 242 243 245 245 244 240 235 231 229
318 318 318 317 316 316 315 314 313 313 312 311 310 308 307 305 304 303 303 303 304 304 304 304 305 306 307 308 309 311 313 316 318 320 319 316 313 312 313 314 315 314 312 312 312 312 311 309 308 307 307 306 305 303 303 303 305 306 306 304 300 296 291 285 279 273 267 263 258 254 250 246 242 239 238 237 238 239 241 243 244 244 242 237 233 231
320 319 319 318 317 316 316 315 315 314 313 312 310 307 305 304 303 303 304 305 306 306 306 307 307 309 310 311 312 314 316 319 322 323 321 317 314 313 314 316 316 316 315 314 314 313 312 312 312 312 312 312 311 311 310 310 310 310 308 306 302 297 291 283 276 270 265 262 258 255 251 247 243 240 237 236 236 237 239 241 243 244 242 239 234 231
321 320 319 319 318 318 317 316 316 315 313 311 309 307 305 305 306 307 308 309 309 310 310 310 310 311 312 313 314 316 318 322 325 326 322 317 313 313 315 316 316 316 316 316 316 315 314 315 316 317 318 318 318 317 316 315 314 312 309 306 301 295 287 279 272 267 263 261 258 255 252 248 244 240 237 235 234 235 237 239 241 243 242 239 234 230
322 322 321 321 320 320 319 318 317 316 315 313 311 311 311 311 311 312 313 313 313 313 313 313 313 313 314 315 316 317 320 325 328 327 322 316 313 313 315 316 316 317 318 318 318 317 317 318 319 320 321 320 319 318 318 317 315 313 309 304 296 289 280 273 268 264 262 260 258 255 253 249 244 240 236 234 233 233 235 237 239 241 241 237 233 230
324 324 323 323 323 323 322 321 321 320 319 319 319 320 320 320 319 319 318 318 317 316 315 315 315 315 315 315 315 316 320 327 330 327 321 316 313 314 315 316 316 318 319 319 318 317 316 318 320 322 321 320 320 320 321 321 319 315 308 299 290 281 274 269 265 262 260 259 258 256 253 249 245 240 236 233 231 231 232 235 237 239 239 236 232 230
325 325 325 326 326 327 326 326 326 326 327 328 329 330 329 328 326 324 323 322 321 319 318 317 317 317 316 315 314 315 319 325 329 326 321 316 314 314 315 315 316 317 318 317 316 315 314 315 318 322 323 322 324 327 329 328 323 316 306 295 285 277 271 267 264 261 260 259 258 257 255 251 246 241 236 233 231 230 231 232 234 236 236 234 232 230
325 327 328 329 330 330 331 332 333 334 336 337 337 336 335 333 331 329 327 325 324 322 320 319 318 317 317 316 316 317 320 324 327 325 321 317 315 314 315 315 315 316 316 316 314 312 311 313 316 320 323 327 332 335 337 333 325 316 306 294 283 275 270 267 264 263 262 262 261 260 256 252 247 241 236 232 230 229 229 230 231 232 233 232 231 231
327 329 331 332 334 335 336 338 339 341 341 342 341 339 337 335 333 332 330 328 326 324 322 320 318 318 317 317 317 318 321 324 325 324 321 317 314 313 313 314 314 315 315 314 312 311 310 311 315 319 325 332 339 341 340 335 326 316 307 298 288 278 272 269 267 267 267 266 265 262 257 251 244 237 232 228 226 225 225 226 228 229 230 231 231 232
330 333 335 336 338 339 341 343 344 344 344 343 342 340 338 336 335 333 331 329 327 325 323 321 319 318 317 316 316 318 320 323 324 322 319 315 313 312 311 312 312 313 312 311 311 310 311 313 316 321 326 333 340 344 342 337 328 317 308 301 293 285 280 277 276 275 273 271 267 261 253 243 233 226 221 219 219 219 220 221 223 226 229 231 232 234
334 337 339 340 341 342 344 345 345 344 344 343 341 340 338 336 334 333 331 329 328 326 324 322 320 319 317 316 316 316 318 320 321 320 317 314 311 310 309 309 310 310 310 309 309 311 313 316 320 325 328 332 337 344 347 341 330 319 309 300 293 290 290 290 289 286 282 276 267 256 241 227 218 212 211 211 212 213 213 215 218 222 226 229 233 235
337 339 341 342 343 344 344 344 344 343 342 341 340 339 337 335 333 332 331 329 328 326 325 323 322 320 319 317 316 316 316 317 318 318 316 313 311 309 308 308 309 309 308 308 309 312 315 318 322 326 330 333 336 342 349 344 338 329 314 299 296 299 303 305 305 301 292 281 262 240 219 208 204 203 204 207 209 210 210 212 214 217 221 226 229 232
339 341 343 344 344 344 343 343 343 342 341 340 339 337 336 334 332 331 330 329 328 327 326 325 324 323 322 320 318 317 316 316 317 317 316 315 312 310 309 309 310 310 310 311 312 314 317 319 322 327 331 336 342 347 349 346 348 345 321 310 310 314 317 320 320 313 294 208 163 160 166 174 182 187 190 194 200 205 209 211 212 214 217 220 223 224
341 343 344 344 344 343 343 342 341 340 340 339 338 336 335 333 331 330 330 329 329 328 327 326 326 326 325 324 321 319 318 317 317 318 318 318 316 314 312 312 312 313 315 315 316 317 319 321 324 327 331 337 348 358 359 354 351 344 322 316 318 322 323 318 301 243 185 165 157 157 161 166 172 177 179 181 186 195 203 208 210 212 213 215 215 212
343 343 344 344 343 342 342 341 340 340 339 339 338 337 335 333 332 332 331 331 331 330 329 328 328 329 329 327 325 322 321 320 321 322 323 322 321 319 317 316 317 318 319 319 320 321 322 323 325 328 332 338 348 1 12 12 5 343 314 296 291 294 302 291 275 258 234 215 208 201 191 182 178 179 185 187 188 191 198 204 208 210 210 209 207 202
343 343 343 343 343 342 342 341 341 341 340 340 340 339 337 335 334 333 334 334 333 332 331 331 331 331 332 330 328 325 324 324 326 327 328 328 327 325 323 322 321 322 322 322 324 326 326 325 327 331 338 345 354 4 11 15 9 346 307 281 286 302 311 314 322 330 324 283 225 194 178 169 170 178 195 203 202 200 200 203 206 208 208 206 202 198
342 342 342 342 342 342 342 342 343 343 343 343 343 342 340 338 337 336 336 336 336 335 334 333 333 333 334 333 331 330 329 330 332 334 335 333 331 329 327 326 325 325 325 325 327 329 330 329 331 336 345 355 4 10 12 10 1 351 343 339 344 348 352 0 12 27 48 81 109 124 134 145 157 173 195 210 213 210 206 206 207 209 208 205 200 194
342 342 342 342 343 343 344 345 346 347 348 348 347 346 344 342 340 339 339 338 338 337 336 335 335 335 335 336 337 337 338 340 341 341 339 337 334 332 330 328 327 327 327 327 329 332 335 335 337 342 353 3 12 15 15 12 9 12 17 26 32 34 35 38 47 64 82 95 106 116 129 144 160 173 181 194 208 213 212 211 211 211 210 205 198 192
342 342 342 343 344 345 346 347 349 350 351 352 351 350 348 346 344 343 342 341 340 339 338 336 336 336 337 339 341 345 348 349 349 346 343 340 337 335 332 330 329 329 329 330 332 335 340 343 347 353 5 14 19 20 22 26 33 39 44 45 45 47 50 58 69 80 88 96 104 113 126 136 142 147 155 168 188 204 210 212 212 213 211 204 195 188
342 342 343 344 345 347 348 349 351 352 353 353 353 352 350 349 348 346 345 344 343 342 340 338 337 337 338 341 345 350 354 355 354 351 348 344 341 339 335 333 332 331 333 334 337 340 345 352 0 12 26 31 29 28 34 43 51 57 58 56 54 54 58 66 75 81 85 92 97 103 105 101 100 106 122 141 158 175 194 204 207 208 208 203 195 186
343 343 344 345 347 348 349 350 351 352 353 354 353 353 352 351 350 349 348 347 345 344 342 340 339 338 340 344 348 353 357 358 358 356 353 350 348 344 341 338 336 336 338 340 344 349 356 5 17 32 42 41 40 44 52 58 63 66 65 63 61 62 66 70 74 78 81 83 83 81 77 74 76 85 104 126 142 155 173 185 192 197 200 199 193 185
344 345 345 347 348 349 349 350 350 351 352 352 353 353 352 351 351 351 350 350 349 347 345 344 342 341 343 346 350 355 358 359 360 359 357 356 354 351 348 344 342 343 345 348 354 1 11 24 42 53 54 53 57 64 69 70 70 69 68 66 65 65 65 66 70 74 76 71 65 62 61 60 65 80 107 132 145 151 157 164 171 180 188 191 188 182
345 346 346 347 347 348 349 349 349 349 350 350 352 352 352 351 351 351 352 352 352 351 350 348 346 345 346 350 353 356 359 360 0 360 360 359 359 358 355 352 351 351 354 359 5 15 28 44 59 67 69 71 74 77 78 76 74 71 69 68 66 64 62 64 65 66 62 58 56 56 56 55 59 68 82 102 133 149 154 154 159 167 176 181 181 177
347 347 346 346 347 347 348 348 348 348 348 349 350 352 352 351 351 351 352 353 355 355 354 352 350 350 351 353 356 359 0 1 2 2 2 2 2 2 2 0 359 0 4 10 19 32 47 61 69 75 77 81 83 83 82 79 77 74 71 68 65 62 60 60 59 57 53 51 50 52 55 55 57 57 56 61 86 122 142 147 151 157 165 170 171 169
347 347 346 346 346 346 347 347 348 348 348 349 350 351 351 351 350 350 351 353 356 357 357 356 355 353 354 355 357 360 2 4 5 5 5 5 5 6 7 7 9 11 14 21 33 49 62 72 78 82 85 87 88 86 84 82 80 77 72 66 62 59 55 54 53 51 48 46 45 45 46 47 50 51 48 48 61 91 121 134 143 150 158 162 163 161
347 346 345 345 346 346 347 348 349 349 349 350 350 351 351 351 350 350 351 353 356 359 1 0 359 357 355 356 357 0 3 5 7 7 8 8 9 10 11 13 17 21 25 33 45 60 73 82 87 89 90 91 92 91 87 85 81 75 68 62 58 54 50 48 48 47 45 42 40 38 37 38 39 41 43 44 54 75 98 115 127 139 152 159 161 159
Height
2867 2865 2863 2861 2860 2857 2854 2853 2852 2849 2845 2844 2842 2840 2838 2836 2835 2834 2833 2831 2830 2828 2826 2825 2824 2823 2821 2820 2819 2818 2817 2815 2814 2813 2812 2810 2810 2809 2808 2807 2806 2805 2805 2804 2803 2802 2800 2800 2798 2797 2796 2795 2794 2793 2792 2791 2790 2790 2790 2790 2789 2789 2789 2789 2790 2790 2789 2789 2789 2789 2789 2789 2788 2788 2788 2788 2788 2789 2790 2792 2794 2795 2797 2800 2802 2803
2863 2861 2859 2857 2856 2853 2850 2848 2847 2846 2843 2840 2838 2836 2834 2832 2830 2829 2828 2827 2825 2824 2822 2820 2819 2817 2816 2815 2814 2813 2812 2811 2810 2809 2808 2806 2805 2805 2804 2803 2802 2801 2800 2800 2799 2798 2797 2796 2795 2794 2793 2791 2790 2788 2787 2787 2786 2786 2786 2785 2785 2785 2785 2785 2786 2786 2785 2785 2785 2785 2784 2784 2783 2783 2783 2783 2784 2785 2785 2787 2788 2790 2791 2794 2796 2799
2860 2856 2854 2852 2851 2849 2846 2844 2843 2842 2840 2837 2834 2832 2830 2829 2826 2825 2824 2822 2820 2819 2817 2815 2814 2812 2810 2810 2809 2808 2807 2806 2805 2804 2803 2802 2801 2800 2800 2799 2798 2797 2796 2796 2795 2794 2793 2792 2791 2790 2789 2787 2786 2784 2783 2782 2782 2782 2782 2782 2781 2781 2782 2782 2782 2782 2782 2783 2782 2782 2780 2779 2779 2778 2779 2779 2780 2780 2781 2782 2783 2785 2786 2787 2790 2792
2856 2853 2850 2848 2847 2845 2843 2841 2839 2837 2835 2833 2830 2829 2827 2825 2823 2821 2820 2818 2816 2814 2812 2811 2810 2808 2806 2805 2804 2804 2802 2801 2800 2799 2798 2797 2796 2795 2795 2794 2794 2793 2793 2792 2791 2790 2790 2788 2787 2786 2785 2783 2781 2780 2779 2778 2778 2778 2778 2778 2778 2778 2778 2779 2779 2779 2779 2778 2778 2778 2777 2775 2775 2775 2775 2775 2776 2777 2778 2779 2780 2780 2781 2782 2784 2786
2852 2850 2847 2846 2843 2841 2840 2838 2836 2833 2831 2829 2827 2825 2823 2821 2819 2817 2815 2814 2812 2810 2809 2808 2807 2805 2804 2802 2800 2799 2798 2797 2796 2795 2794 2793 2792 2791 2791 2790 2790 2789 2789 2788 2787 2786 2785 2784 2783 2782 2780 2779 2777 2776 2775 2775 2774 2774 2774 2774 2774 2774 2775 2775 2775 2775 2774 2773 2773 2772 2772 2771 2771 2771 2771 2772 2773 2773 2774 2775 2776 2777 2778 2778 2779 2780
2849 2848 2846 2844 2841 2839 2837 2835 2833 2830 2828 2825 2823 2822 2820 2818 2816 2814 2812 2810 2809 2807 2806 2805 2804 2802 2800 2798 2797 2795 2795 2793 2792 2791 2790 2789 2788 2788 2787 2786 2786 2785 2785 2784 2783 2782 2781 2780 2779 2777 2776 2775 2773 2772 2771 2770 2770 2770 2770 2770 2770 2771 2771 2771 2771 2770 2770 2769 2769 2768 2768 2768 2768 2768 2768 2769 2769 2770 2770 2770 2771 2773 2774 2774 2775 2776
2846 2845 2844 2842 2840 2837 2835 2832 2830 2828 2826 2823 2820 2818 2816 2815 2813 2811 2809 2808 2806 2805 2803 2801 2800 2799 2797 2795 2793 2792 2791 2790 2788 2787 2786 2785 2785 2784 2784 2783 2782 2781 2780 2779 2778 2777 2776 2775 2774 2773 2772 2771 2770 2768 2767 2766 2766 2766 2766 2766 2766 2767 2767 2767 2767 2766 2765 2765 2765 2765 2765 2765 2765 2765 2765 2765 2766 2766 2766 2767 2767 2768 2769 2770 2771 2772
2843 2842 2841 2840 2837 2833 2830 2829 2827 2826 2824 2820 2817 2814 2812 2810 2809 2808 2806 2805 2803 2801 2800 2797 2795 2794 2793 2791 2790 2789 2787 2786 2785 2783 2782 2782 2781 2780 2780 2779 2778 2777 2776 2775 2774 2773 2772 2771 2770 2769 2768 2767 2765 2764 2763 2763 2763 2762 2762 2762 2763 2763 2763 2763 2763 2762 2761 2761 2761 2762 2762 2762 2762 2762 2763 2763 2763 2763 2763 2763 2764 2765 2766 2767 2768 2769
2841 2839 2836 2835 2834 2830 2826 2824 2823 2823 2821 2818 2816 2813 2810 2807 2805 2803 2802 2800 2799 2798 2796 2794 2791 2790 2789 2788 2787 2785 2784 2782 2781 2779 2778 2777 2776 2776 2775 2774 2773 2772 2772 2771 2770 2769 2768 2767 2766 2765 2764 2763 2762 2760 2760 2759 2759 2759 2759 2759 2760 2759 2759 2759 2759 2758 2758 2758 2758 2759 2759 2759 2759 2759 2759 2759 2759 2759 2759 2759 2760 2761 2763 2764 2765 2766
2838 2835 2833 2830 2830 2829 2826 2823 2820 2819 2819 2816 2814 2811 2808 2805 2802 2799 2796 2795 2795 2794 2793 2790 2788 2785 2784 2783 2783 2781 2780 2778 2777 2775 2775 2774 2773 2772 2771 2770 2769 2768 2768 2767 2766 2765 2765 2764 2763 2761 2760 2759 2758 2757 2756 2756 2755 2755 2755 2756 2756 2756 2756 2756 2755 2755 2755 2755 2755 2755 2755 2755 2755 2755 2755 2755 2754 2755 2755 2755 2755 2756 2758 2760 2761 2763
2834 2832 2830 2828 2826 2825 2825 2822 2819 2816 2815 2812 2810 2807 2805 2804 2801 2797 2793 2790 2789 2789 2788 2786 2784 2782 2780 2778 2778 2777 2775 2774 2772 2771 2771 2770 2770 2768 2767 2766 2765 2765 2764 2763 2762 2761 2760 2760 2759 2758 2757 2755 2755 2754 2753 2752 2752 2752 2752 2752 2752 2752 2753 2752 2752 2751 2751 2752 2752 2752 2752 2751 2751 2751 2751 2750 2750 2751 2751 2751 2751 2752 2753 2755 2756 2758
2832 2830 2827 2825 2824 2822 2820 2818 2815 2812 2810 2808 2805 2802 2801 2800 2799 2796 2792 2788 2785 2784 2782 2781 2780 2779 2777 2775 2773 2772 2771 2771 2770 2769 2767 2766 2765 2765 2763 2762 2761 2760 2760 2759 2758 2757 2757 2756 2755 2754 2753 2752 2751 2751 2750 2749 2749 2749 2749 2749 2749 2749 2749 2749 2749 2748 2748 2748 2748 2748 2748 2747 2747 2747 2747 2747 2747 2748 2748 2748 2749 2749 2750 2750 2751 2753
2831 2827 2825 2823 2821 2819 2817 2814 2811 2808 2807 2805 2802 2799 2797 2795 2795 2793 2790 2786 2783 2781 2779 2776 2775 2774 2774 2772 2771 2770 2770 2769 2767 2765 2764 2763 2762 2761 2760 2758 2757 2756 2755 2755 2754 2753 2753 2752 2751 2750 2750 2749 2749 2748 2747 2747 2746 2746 2746 2746 2746 2746 2746 2745 2745 2745 2745 2744 2744 2743 2743 2743 2743 2743 2744 2744 2745 2745 2745 2746 2746 2747 2747 2748 2749 2749
2828 2825 2823 2820 2817 2815 2813 2811 2808 2805 2803 2801 2800 2797 2794 2792 2791 2789 2786 2783 2780 2778 2776 2774 2771 2770 2770 2769 2769 2769 2768 2765 2763 2761 2760 2760 2759 2758 2756 2754 2753 2753 2752 2751 2750 2749 2749 2749 2747 2747 2746 2746 2745 2745 2744 2744 2744 2743 2743 2743 2743 2743 2743 2742 2742 2741 2740 2740 2740 2739 2739 2739 2739 2740 2740 2741 2742 2742 2743 2743 2743 2744 2745 2745 2746 2746
2826 2823 2820 2817 2814 2812 2810 2808 2805 2802 2800 2798 2796 2794 2791 2789 2787 2785 2783 2780 2777 2775 2773 2770 2768 2766 2766 2766 2766 2765 2763 2761 2759 2758 2756 2755 2755 2755 2753 2751 2750 2749 2749 2747 2746 2746 2746 2745 2744 2743 2743 2743 2742 2742 2741 2741 2740 2740 2740 2740 2740 2739 2739 2739 2738 2737 2736 2736 2735 2735 2735 2735 2735 2736 2737 2738 2739 2739 2740 2740 2740 2740 2741 2742 2742 2743
2824 2821 2818 2814 2811 2808 2806 2805 2802 2799 2796 2795 2793 2791 2789 2786 2784 2782 2780 2776 2774 2771 2770 2767 2765 2763 2762 2762 2763 2762 2760 2758 2755 2754 2752 2750 2750 2751 2750 2748 2746 2745 2745 2744 2743 2742 2742 2741 2741 2740 2740 2739 2739 2739 2738 2738 2737 2737 2737 2737 2736 2736 2735 2735 2734 2733 2732 2732 2731 2731 2731 2731 2732 2733 2733 2734 2735 2735 2736 2736 2737 2737 2737 2738 2739 2740
2821 2818 2815 2811 2808 2805 2803 2801 2799 2797 2794 2792 2790 2788 2786 2784 2781 2779 2777 2774 2771 2769 2767 2766 2764 2761 2758 2757 2758 2759 2757 2755 2752 2750 2749 2746 2746 2747 2747 2745 2743 2741 2741 2741 2740 2739 2739 2738 2737 2737 2736 2736 2735 2735 2734 2734 2734 2734 2734 2733 2732 2731 2731 2730 2730 2729 2728 2728 2728 2728 2728 2728 2729 2729 2730 2730 2731 2732 2732 2732 2733 2733 2733 2734 2735 2736
2818 2815 2812 2809 2805 2802 2800 2798 2796 2794 2792 2789 2787 2785 2783 2781 2779 2777 2775 2772 2770 2769 2767 2765 2763 2760 2757 2754 2754 2754 2755 2753 2750 2747 2745 2743 2742 2743 2743 2742 2740 2738 2738 2737 2737 2736 2735 2735 2734 2734 2733 2732 2732 2731 2731 2730 2730 2729 2729 2729 2728 2728 2727 2726 2726 2725 2725 2724 2724 2724 2724 2725 2725 2725 2726 2727 2727 2728 2729 2729 2730 2730 2731 2731 2732 2733
2814 2812 2809 2806 2802 2799 2797 2795 2794 2791 2789 2787 2784 2781 2779 2777 2776 2775 2773 2771 2770 2769 2767 2764 2761 2758 2756 2753 2751 2751 2752 2750 2748 2745 2742 2739 2738 2738 2739 2738 2736 2735 2734 2734 2733 2733 2732 2731 2730 2730 2730 2730 2730 2729 2728 2727 2726 2726 2725 2725 2724 2724 2723 2723 2722 2721 2721 2720 2720 2720 2720 2721 2721 2722 2722 2723 2724 2725 2725 2726 2727 2728 2728 2728 2729 2730
2810 2808 2806 2804 2800 2797 2794 2792 2791 2789 2787 2784 2782 2780 2778 2775 2774 2773 2771 2770 2768 2766 2764 2761 2758 2755 2753 2750 2749 2748 2749 2748 2745 2742 2739 2736 2735 2735 2735 2735 2733 2731 2730 2730 2729 2729 2728 2727 2728 2728 2727 2726 2725 2725 2724 2723 2723 2722 2722 2721 2720 2720 2720 2719 2718 2718 2717 2716 2716 2716 2716 2717 2717 2718 2719 2720 2720 2721 2722 2724 2725 2725 2725 2725 2726 2727
2807 2804 2803 2801 2798 2795 2791 2789 2788 2786 2785 2783 2781 2779 2776 2774 2772 2770 2769 2767 2765 2762 2760 2757 2755 2752 2750 2748 2746 2745 2746 2745 2743 2739 2736 2733 2731 2731 2732 2731 2729 2727 2726 2725 2725 2724 2724 2723 2723 2722 2721 2721 2721 2720 2720 2720 2719 2719 2718 2718 2718 2717 2716 2715 2715 2714 2713 2712 2712 2712 2712 2712 2713 2714 2715 2715 2717 2718 2719 2720 2722 2722 2722 2722 2723 2725
2805 2801 2800 2798 2796 2793 2790 2787 2785 2784 2783 2781 2779 2776 2773 2771 2769 2766 2764 2763 2761 2758 2756 2754 2752 2750 2748 2745 2744 2743 2743 2742 2740 2737 2734 2730 2728 2728 2729 2728 2726 2724 2722 2721 2721 2721 2720 2719 2718 2718 2718 2717 2717 2717 2716 2715 2715 2715 2714 2714 2714 2713 2712 2711 2710 2709 2708 2708 2707 2707 2708 2708 2709 2709 2710 2711 2713 2715 2716 2717 2718 2719 2720 2720 2721 2722
2802 2799 2796 2795 2793 2790 2788 2786 2783 2781 2780 2778 2776 2773 2771 2768 2766 2764 2761 2760 2758 2755 2753 2751 2748 2746 2745 2743 2741 2740 2740 2740 2738 2735 2732 2729 2725 2725 2725 2725 2723 2720 2719 2718 2718 2717 2716 2715 2715 2715 2714 2714 2714 2713 2712 2712 2711 2711 2710 2710 2710 2709 2708 2707 2706 2705 2704 2703 2703 2703 2703 2703 2704 2705 2706 2707 2709 2711 2712 2713 2715 2716 2717 2717 2718 2719
2799 2796 2794 2792 2790 2788 2786 2783 2781 2779 2777 2775 2773 2770 2768 2766 2764 2762 2759 2757 2755 2753 2750 2747 2745 2743 2741 2740 2739 2738 2737 2737 2735 2733 2730 2726 2723 2722 2722 2721 2720 2717 2716 2715 2715 2714 2713 2712 2711 2711 2711 2711 2710 2710 2709 2708 2708 2707 2707 2707 2706 2705 2704 2702 2701 2700 2699 2699 2698 2698 2698 2698 2699 2700 2701 2703 2705 2707 2708 2710 2711 2712 2714 2715 2715 2716
2797 2795 2792 2790 2788 2786 2784 2781 2779 2777 2775 2772 2770 2768 2765 2764 2761 2759 2757 2755 2753 2750 2748 2745 2742 2740 2739 2738 2736 2735 2734 2734 2732 2730 2728 2724 2721 2719 2719 2718 2717 2714 2712 2712 2711 2711 2710 2708 2708 2708 2707 2707 2707 2706 2705 2705 2704 2704 2704 2703 2702 2701 2700 2699 2697 2696 2695 2695 2694 2694 2693 2694 2694 2695 2697 2699 2701 2703 2704 2706 2707 2709 2710 2711 2712 2713
2795 2792 2790 2787 2785 2784 2781 2779 2777 2775 2773 2770 2768 2765 2763 2760 2758 2756 2755 2753 2751 2749 2746 2743 2740 2738 2736 2735 2733 2731 2730 2730 2729 2728 2725 2722 2718 2715 2715 2715 2714 2711 2709 2708 2708 2708 2706 2705 2704 2704 2704 2703 2703 2702 2702 2701 2701 2700 2700 2699 2698 2697 2696 2695 2694 2693 2692 2691 2690 2690 2689 2690 2690 2691 2693 2695 2697 2699 2701 2702 2704 2705 2707 2708 2709 2710
2792 2790 2788 2785 2783 2781 2779 2777 2775 2773 2771 2769 2766 2764 2761 2759 2756 2755 2753 2751 2749 2746 2744 2740 2738 2735 2734 2732 2730 2729 2728 2727 2726 2725 2723 2720 2716 2713 2712 2712 2711 2709 2707 2705 2705 2704 2703 2702 2701 2700 2700 2700 2700 2699 2699 2698 2697 2697 2696 2695 2695 2694 2693 2692 2691 2690 2688 2687 2686 2686 2686 2686 2687 2688 2690 2691 2694 2695 2697 2699 2700 2702 2704 2705 2706 2708
2790 2787 2785 2783 2781 2779 2777 2775 2772 2770 2769 2767 2765 2763 2761 2758 2755 2753 2750 2749 2747 2745 2742 2739 2736 2733 2731 2729 2728 2726 2726 2725 2724 2723 2721 2718 2715 2712 2710 2710 2709 2707 2705 2702 2701 2701 2700 2699 2698 2698 2697 2697 2696 2696 2695 2695 2694 2693 2693 2692 2691 2691 2690 2689 2688 2686 2685 2684 2683 2683 2683 2683 2684 2685 2686 2688 2690 2692 2694 2696 2698 2699 2701 2702 2704 2705
2787 2785 2783 2781 2779 2777 2775 2772 2770 2769 2767 2765 2764 2762 2760 2757 2755 2751 2748 2746 2745 2742 2740 2737 2735 2732 2730 2727 2725 2724 2724 2723 2723 2721 2719 2716 2713 2710 2709 2708 2707 2706 2704 2700 2698 2697 2697 2697 2696 2695 2694 2694 2693 2693 2692 2692 2691 2690 2690 2689 2688 2688 2687 2686 2684 2683 2681 2681 2680 2680 2680 2681 2681 2683 2684 2686 2688 2690 2691 2693 2695 2697 2698 2700 2701 2703
2785 2783 2781 2779 2777 2775 2773 2770 2769 2767 2765 2764 2762 2760 2758 2755 2753 2750 2747 2745 2743 2740 2738 2735 2733 2730 2728 2725 2723 2721 2721 2721 2721 2720 2717 2715 2711 2709 2708 2707 2705 2704 2703 2700 2696 2693 2692 2693 2694 2694 2693 2692 2691 2690 2690 2689 2688 2687 2686 2686 2685 2685 2684 2683 2681 2680 2679 2678 2678 2678 2678 2678 2679 2680 2682 2684 2685 2687 2689 2691 2693 2694 2695 2697 2698 2700
2781 2780 2778 2776 2775 2773 2770 2769 2767 2765 2763 2761 2760 2757 2755 2753 2750 2748 2745 2743 2741 2739 2736 2734 2731 2729 2727 2725 2722 2720 2718 2719 2720 2719 2716 2713 2710 2707 2706 2705 2703 2702 2702 2700 2697 2693 2689 2689 2690 2692 2691 2690 2689 2688 2687 2687 2686 2685 2684 2683 2683 2682 2681 2680 2679 2678 2677 2676 2676 2676 2676 2676 2677 2679 2680 2682 2683 2685 2687 2689 2690 2692 2693 2694 2696 2698
2779 2777 2775 2774 2772 2770 2769 2767 2765 2763 2761 2759 2757 2755 2753 2751 2749 2746 2744 2742 2740 2737 2735 2732 2730 2728 2726 2725 2723 2720 2718 2717 2718 2717 2715 2712 2709 2706 2705 2704 2702 2701 2700 2700 2699 2695 2690 2687 2686 2688 2689 2688 2687 2686 2685 2685 2684 2683 2682 2681 2680 2679 2678 2677 2676 2676 2675 2675 2675 2675 2675 2675 2676 2677 2679 2680 2682 2683 2685 2687 2688 2690 2691 2692 2694 2696
2778 2776 2774 2772 2770 2769 2767 2765 2763 2761 2759 2756 2755 2753 2751 2749 2747 2745 2743 2740 2738 2736 2734 2731 2729 2726 2724 2723 2721 2719 2717 2716 2716 2715 2713 2711 2708 2705 2704 2703 2701 2700 2698 2698 2697 2695 2692 2688 2685 2685 2685 2685 2685 2684 2683 2683 2682 2681 2680 2679 2678 2677 2676 2676 2675 2674 2674 2674 2674 2674 2674 2675 2675 2676 2678 2679 2681 2682 2684 2685 2686 2688 2689 2690 2692 2694
2776 2774 2772 2770 2769 2767 2765 2763 2761 2759 2757 2755 2753 2751 2749 2747 2745 2743 2741 2739 2737 2735 2733 2731 2728 2725 2723 2720 2719 2717 2716 2715 2715 2714 2712 2710 2708 2705 2703 2701 2700 2698 2697 2695 2694 2693 2691 2689 2686 2684 2683 2683 2683 2683 2682 2681 2680 2679 2678 2677 2676 2675 2675 2675 2674 2674 2673 2673 2673 2673 2673 2674 2675 2676 2677 2678 2680 2681 2682 2684 2685 2686 2688 2690 2691 2693
2775 2773 2771 2769 2767 2765 2763 2761 2759 2757 2755 2753 2751 2749 2747 2745 2744 2741 2740 2738 2736 2734 2732 2730 2728 2726 2724 2720 2718 2715 2715 2714 2714 2713 2711 2710 2707 2705 2702 2700 2699 2698 2696 2694 2692 2691 2689 2687 2686 2684 2682 2681 2681 2681 2681 2680 2679 2678 2677 2676 2675 2674 2674 2674 2674 2673 2673 2673 2673 2673 2673 2674 2675 2675 2677 2678 2679 2680 2681 2683 2684 2685 2687 2689 2690 2692
2773 2771 2769 2767 2765 2763 2761 2759 2757 2755 2754 2752 2750 2748 2746 2744 2742 2740 2738 2737 2735 2733 2731 2730 2728 2726 2724 2722 2719 2716 2714 2713 2712 2711 2710 2709 2707 2705 2702 2700 2699 2697 2695 2693 2691 2689 2687 2685 2684 2684 2683 2681 2680 2679 2679 2679 2678 2676 2675 2675 2674 2674 2674 2674 2673 2673 2673 2672 2672 2673 2673 2674 2675 2675 2676 2677 2678 2680 2681 2682 2683 2685 2686 2688 2690 2691
2771 2770 2768 2765 2764 2761 2760 2758 2756 2754 2752 2750 2748 2746 2745 2743 2741 2739 2737 2735 2734 2732 2730 2728 2726 2725 2723 2721 2719 2716 2714 2712 2711 2710 2709 2707 2706 2704 2701 2699 2697 2697 2695 2693 2690 2688 2686 2685 2683 2682 2682 2681 2680 2679 2678 2677 2676 2675 2675 2674 2674 2674 2674 2673 2673 2673 2672 2672 2672 2673 2673 2674 2675 2675 2676 2677 2678 2679 2680 2681 2683 2684 2685 2687 2689 2690
2770 2768 2766 2764 2762 2760 2758 2756 2754 2752 2750 2749 2747 2745 2743 2741 2740 2738 2736 2734 2732 2730 2729 2727 2725 2724 2722 2720 2718 2716 2714 2711 2710 2708 2707 2706 2705 2703 2700 2698 2696 2695 2694 2692 2690 2688 2686 2684 2682 2681 2680 2680 2680 2679 2677 2676 2676 2675 2675 2675 2674 2674 2673 2673 2673 2672 2672 2673 2673 2673 2674 2674 2675 2676 2677 2678 2679 2680 2680 2681 2682 2683 2685 2686 2687 2689
2768 2766 2765 2763 2761 2759 2757 2755 2753 2751 2749 2747 2745 2744 2742 2740 2738 2736 2735 2733 2731 2729 2727 2725 2724 2722 2720 2719 2717 2715 2713 2711 2709 2707 2706 2704 2703 2701 2700 2697 2695 2694 2693 2691 2690 2688 2686 2684 2683 2681 2680 2679 2678 2678 2677 2676 2676 2675 2675 2675 2674 2674 2673 2673 2673 2673 2673 2673 2674 2674 2675 2675 2676 2677 2677 2678 2679 2680 2680 2681 2682 2683 2684 2685 2686 2688
2767 2765 2764 2762 2760 2758 2756 2754 2752 2750 2748 2746 2745 2742 2740 2738 2736 2735 2733 2731 2730 2728 2726 2724 2722 2721 2720 2718 2716 2714 2712 2710 2708 2706 2705 2703 2701 2700 2698 2696 2694 2692 2691 2690 2689 2687 2686 2684 2683 2681 2680 2679 2678 2678 2677 2676 2676 2676 2675 2675 2674 2674 2674 2673 2673 2673 2674 2674 2674 2675 2675 2676 2676 2677 2677 2678 2679 2680 2680 2680 2681 2682 2682 2684 2685 2686
2766 2764 2762 2761 2759 2757 2755 2753 2751 2749 2747 2745 2743 2741 2739 2737 2735 2733 2731 2730 2728 2727 2725 2723 2721 2720 2718 2717 2715 2714 2711 2710 2708 2705 2704 2702 2700 2699 2697 2695 2694 2692 2690 2688 2687 2686 2685 2684 2682 2681 2680 2680 2679 2678 2677 2677 2676 2676 2675 2675 2675 2675 2674 2674 2674 2675 2675 2675 2675 2675 2676 2676 2676 2677 2677 2677 2678 2678 2679 2680 2680 2681 2681 2682 2684 2685
2765 2763 2761 2760 2758 2756 2754 2752 2750 2749 2746 2744 2742 2740 2738 2735 2734 2731 2730 2728 2727 2725 2723 2722 2720 2719 2717 2716 2715 2713 2711 2709 2707 2705 2703 2701 2699 2698 2696 2695 2693 2691 2689 2687 2686 2685 2685 2683 2682 2681 2680 2680 2679 2678 2677 2677 2676 2676 2676 2676 2675 2675 2675 2675 2675 2676 2676 2676 2675 2675 2675 2676 2676 2677 2677 2677 2678 2678 2679 2679 2680 2680 2681 2682 2683 2684
2764 2762 2760 2759 2757 2755 2753 2751 2750 2748 2745 2744 2741 2740 2737 2735 2733 2731 2729 2727 2725 2724 2722 2720 2719 2717 2716 2715 2714 2712 2710 2708 2706 2704 2702 2700 2699 2697 2695 2694 2692 2690 2688 2687 2685 2685 2684 2683 2682 2681 2680 2680 2679 2678 2678 2677 2677 2677 2677 2677 2677 2676 2676 2676 2676 2676 2676 2675 2675 2675 2675 2676 2676 2677 2677 2678 2678 2678 2679 2679 2680 2680 2681 2681 2682 2683
2763 2761 2760 2758 2756 2755 2753 2751 2749 2747 2745 2743 2741 2739 2737 2735 2732 2730 2728 2726 2725 2723 2721 2720 2718 2716 2715 2714 2712 2711 2710 2707 2705 2704 2702 2700 2698 2696 2695 2693 2691 2689 2688 2686 2685 2684 2684 2683 2682 2681 2680 2680 2679 2679 2678 2678 2678 2678 2678 2678 2678 2678 2677 2677 2677 2676 2676 2675 2675 2676 2676 2677 2677 2677 2678 2678 2679 2679 2679 2680 2680 2680 2681 2682 2682 2683
2762 2760 2759 2757 2755 2754 2752 2750 2748 2746 2744 2742 2740 2738 2736 2734 2732 2730 2728 2726 2724 2722 2721 2719 2717 2716 2714 2713 2711 2710 2708 2706 2705 2703 2701 2700 2698 2696 2694 2692 2690 2689 2687 2686 2685 2684 2683 2682 2682 2681 2680 2680 2680 2679 2679 2679 2679 2679 2679 2679 2679 2679 2679 2678 2677 2676 2676 2676 2676 2677 2677 2677 2677 2678 2678 2679 2679 2679 2680 2680 2680 2681 2681 2682 2683 2683
2762 2760 2758 2756 2755 2753 2751 2749 2747 2745 2744 2742 2740 2738 2736 2734 2732 2730 2728 2726 2724 2722 2720 2719 2717 2715 2714 2712 2710 2709 2707 2705 2704 2702 2701 2699 2698 2696 2694 2692 2690 2688 2687 2685 2685 2684 2683 2683 2682 2681 2681 2680 2680 2680 2680 2680 2680 2680 2680 2680 2680 2680 2679 2678 2677 2677 2677 2677 2677 2678 2678 2678 2678 2678 2679 2679 2680 2680 2680 2680 2681 2681 2682 2682 2683 2684
2761 2759 2757 2756 2754 2752 2750 2749 2747 2745 2743 2741 2740 2738 2736 2734 2732 2730 2728 2726 2724 2722 2720 2719 2717 2715 2714 2712 2710 2708 2706 2704 2703 2702 2700 2699 2697 2695 2694 2691 2690 2688 2686 2685 2685 2684 2683 2683 2682 2682 2681 2681 2681 2681 2681 2682 2682 2682 2681 2681 2681 2680 2679 2678 2678 2678 2678 2678 2678 2679 2679 2679 2679 2679 2679 2680 2680 2680 2681 2681 2681 2682 2682 2683 2684 2684
2761 2759 2757 2755 2753 2752 2750 2748 2746 2744 2743 2741 2739 2738 2736 2734 2732 2730 2728 2726 2725 2723 2721 2719 2717 2715 2714 2712 2710 2708 2706 2704 2703 2701 2700 2698 2697 2695 2693 2691 2689 2687 2686 2685 2685 2684 2683 2683 2682 2682 2682 2682 2682 2682 2683 2683 2683 2683 2683 2683 2682 2680 2680 2679 2679 2680 2680 2680 2680 2680 2680 2680 2680 2680 2680 2680 2680 2681 2681 2682 2682 2682 2683 2683 2684 2685
2760 2759 2756 2755 2753 2751 2749 2747 2745 2744 2742 2740 2738 2737 2735 2734 2732 2730 2728 2726 2725 2723 2720 2719 2717 2715 2713 2711 2710 2708 2707 2705 2703 2701 2700 2698 2696 2695 2693 2691 2689 2687 2686 2685 2685 2684 2684 2684 2683 2683 2683 2684 2684 2684 2684 2684 2684 2684 2684 2683 2682 2681 2681 2681 2681 2681 2681 2681 2681 2681 2681 2681 2681 2681 2681 2681 2681 2681 2682 2682 2683 2683 2684 2684 2685 2685
2760 2758 2756 2754 2752 2750 2748 2746 2745 2742 2740 2739 2737 2736 2735 2733 2732 2730 2728 2726 2725 2723 2721 2719 2716 2715 2713 2711 2710 2708 2707 2705 2704 2702 2700 2698 2697 2695 2693 2691 2690 2688 2687 2686 2685 2685 2685 2685 2685 2685 2685 2685 2685 2685 2685 2686 2685 2685 2685 2684 2683 2683 2683 2683 2683 2683 2683 2683 2683 2683 2682 2682 2682 2682 2682 2682 2682 2682 2682 2683 2683 2684 2685 2685 2685 2686
2760 2758 2756 2754 2751 2750 2747 2745 2744 2742 2740 2738 2736 2735 2734 2732 2731 2730 2728 2726 2725 2723 2721 2719 2717 2715 2713 2711 2710 2709 2707 2706 2704 2702 2701 2699 2697 2695 2694 2692 2690 2688 2687 2687 2686 2686 2685 2685 2686 2686 2686 2686 2686 2687 2687 2687 2686 2685 2685 2685 2685 2685 2685 2685 2685 2685 2685 2685 2684 2684 2684 2684 2683 2683 2683 2683 2683 2683 2683 2683 2684 2684 2685 2685 2686 2687